#timestamp,LO_Frequency,Hit 
1501437615.1,286047000.2,N
1501437635.8,286047000.6,N
1501437655.7,286046999.3,N
1501437675.5,286046999.9,N
1501437695.3,286047001.0,N
1501437715.2,286047000.3,N
1501437735.9,286046998.8,N
1501437755.7,286046983.7,N
1501437775.6,286046999.7,N
1501437795.4,286047001.0,N
1501437815.2,286047000.2,N
1501437835.1,286047094.8,N
1501437836.0,286047094.8,N
1501437855.8,286047004.0,N
1501437875.6,286047002.0,N
1501437895.5,286047001.7,N
1501437915.3,286046872.0,N
1501437935.4,286046429.0,Y
1501437955.2,286047045.2,N
1501437975.0,286047047.0,N
1501437975.9,286047047.0,N
1501437995.8,286047046.3,N
1501438015.6,286047046.1,N
1501438035.4,286047047.3,N
1501438055.3,286047047.5,N
1501438075.1,286047044.6,N
1501438076.0,286047044.6,N
1501438095.8,286047044.9,N
1501438115.7,286047046.9,N
1501438135.5,286047045.4,N
1501438155.3,286047045.1,N
1501438175.1,286047045.3,N
1501438195.9,286047044.5,N
1501438215.7,286047047.4,N
1501438235.5,286047047.3,N
1501438255.4,286047046.5,N
1501438275.2,286047047.3,N
1501438295.0,286047044.6,N
1501438295.9,286047044.6,N
1501438315.8,286047047.5,N
1501438335.6,286047044.7,N
1501438355.4,286047047.3,N
1501438375.3,286047046.7,N
1501438395.1,286047047.1,N
1501438396.0,286047047.1,N
1501438415.8,286047046.3,N
1501438435.7,286047046.8,N
1501438455.5,286047046.9,N
1501438475.3,286047048.9,N
1501438495.1,286047048.6,N
1501438515.9,286047049.1,N
1501438535.7,286047047.8,N
1501438555.5,286046530.4,N
1501438575.4,286047050.6,N
1501438595.2,286047050.1,N
1501438615.0,286047050.5,N
1501438615.9,286047050.5,N
1501438635.8,286047049.7,N
1501438655.6,286046939.0,N
1501438675.4,286046383.9,Y
1501438695.3,286046424.4,Y
1501438715.1,286045846.8,Y
1501438735.8,286046918.9,N
1501438755.7,286046921.2,N
1501438775.5,286046916.5,N
1501438795.3,286046858.8,N
1501438815.2,286046874.2,N
1501438835.9,286045266.8,Y
1501438855.8,286048148.1,Y
1501438875.6,286049746.1,Y
1501438895.4,286047316.5,N
1501438915.3,286048246.5,Y
1501438935.1,286048289.2,Y
1501438955.8,286047694.5,N
1501438975.7,286048328.5,Y
1501438995.5,286048363.8,Y
1501439015.4,286048585.0,Y
1501439035.2,286048427.3,Y
1501439055.0,286048454.6,Y
1501439055.9,286048454.6,Y
1501439075.8,286048929.0,Y
1501439095.6,286048528.8,Y
1501439115.5,286048748.2,Y
1501439135.3,286048782.4,Y
1501439155.1,286048575.1,Y
1501439175.9,286048588.4,Y
1501439195.7,286047655.9,N
1501439215.5,286047657.9,N
1501439235.4,286047659.9,N
1501439255.2,286047657.8,N
1501439275.0,286047657.9,N
1501439275.9,286047657.9,N
1501439295.8,286047318.7,N
1501439315.6,286047657.7,N
1501439335.4,286047657.5,N
1501439355.3,286047658.1,N
1501439375.1,286047657.5,N
1501439376.0,286047657.5,N
1501439395.8,286047659.7,N
1501439415.7,286048273.0,Y
1501439435.5,286047652.2,N
1501439455.3,286047652.2,N
1501439475.2,286047652.1,N
1501439495.9,286047653.3,N
1501439515.7,286048330.4,Y
1501439535.6,286047669.7,N
1501439555.4,286047845.1,N
1501439575.2,286046539.4,N
1501439595.1,286047641.5,N
1501439596.0,286047641.5,N
1501439615.8,286047643.4,N
1501439635.6,286047641.4,N
1501439655.4,286047639.8,N
1501439675.3,286047642.4,N
1501439695.1,286047642.6,N
1501439715.8,286047645.4,N
1501439735.7,286047647.0,N
1501439755.5,286049301.1,Y
1501439775.4,286048905.7,Y
1501439795.2,286047602.7,N
1501439815.0,286047601.6,N
1501439815.9,286047601.6,N
1501439865.8,286047596.9,Y
1501439875.7,286047344.7,N
1501439895.5,286047001.9,N
1501439915.4,286047004.2,N
1501439935.2,286047001.6,N
1501439955.0,286047004.4,N
1501439955.9,286047004.4,N
1501439975.8,286047002.9,N
1501439995.6,286047005.0,N
1501440015.4,286047006.4,N
1501440035.3,286047010.3,N
1501440055.1,286047013.0,N
1501440056.0,286047013.0,N
1501440075.8,286047018.9,N
1501440095.7,286047019.2,N
1501440115.5,286047026.5,N
1501440135.3,286047026.0,N
1501440155.1,286047031.6,N
1501440175.9,286047031.5,N
1501440195.7,286047030.5,N
1501440215.5,286047032.0,N
1501440235.4,286047036.3,N
1501440255.2,286047036.8,N
1501440275.0,286047040.5,N
1501440275.9,286047040.5,N
1501440295.8,286047041.4,N
1501440315.6,286047045.5,N
1501440335.4,286047049.9,N
1501440355.3,286047051.5,N
1501440375.1,286047054.2,N
1501440376.0,286047054.2,N
1501440395.8,286047053.8,N
1501440415.7,286047056.8,N
1501440435.5,286047058.7,N
1501440455.3,286047056.8,N
1501440475.2,286047058.2,N
1501440495.9,286047058.1,N
1501440515.7,286047059.1,N
1501440535.5,286047062.0,N
1501440555.4,286047060.1,N
1501440575.2,286047058.7,N
1501440595.0,286047058.3,N
1501440595.9,286047058.3,N
1501440615.8,286047057.8,N
1501440635.6,286047056.2,N
1501440655.4,286047053.4,N
1501440675.3,286047050.9,N
1501440695.1,286047052.6,N
1501440696.0,286047052.6,N
1501440715.8,286047050.9,N
1501440735.7,286047049.9,N
1501440755.5,286047052.1,N
1501440775.3,286047052.8,N
1501440795.2,286047054.3,N
1501440815.9,286047060.3,N
1501440835.7,286047055.8,N
1501440855.6,286047058.8,N
1501440875.4,286047058.6,N
1501440895.2,286047057.4,N
1501440915.0,286047059.9,N
1501440915.9,286047059.9,N
1501440935.8,286047058.2,N
1501440955.6,286047058.3,N
1501440975.5,286047090.2,N
1501440995.3,286047087.7,N
1501441015.1,286046786.6,N
1501441035.8,286047086.4,N
1501441055.7,286047089.1,N
1501441075.5,286047073.7,N
1501441095.3,286047065.9,N
1501441115.2,286047057.1,N
1501441135.0,286047056.0,N
1501441135.9,286047056.0,N
1501441155.7,286047057.2,N
1501441175.6,286047055.4,N
1501441195.4,286047050.9,N
